Time,TemperatureF,DewpointF,PressureIn,WindDirection,WindDirectionDegrees,WindSpeedMPH,WindSpeedGustMPH,Humidity,HourlyPrecipIn,Conditions,Clouds,dailyrainin,SolarRadiationWatts/m^2,SoftwareType,DateUTC
2013-07-27 00:02:00,54.0,49.0,-100.00,WNW,294,7.0,12.0,84,0.00,,,0.00,0.000000,,2013-07-27 07:02:00,
2013-07-27 00:12:00,54.0,49.0,-100.00,WNW,294,7.0,12.0,84,0.00,,,0.00,0.000000,,2013-07-27 07:12:00,
2013-07-27 00:22:00,54.0,49.0,-100.00,WNW,294,7.0,12.0,84,0.00,,,0.00,0.000000,,2013-07-27 07:22:00,
2013-07-27 01:02:00,52.0,50.0,-100.00,WNW,297,4.0,12.0,92,0.00,,,0.00,0.000000,,2013-07-27 08:02:00,
2013-07-27 01:12:00,52.0,50.0,-100.00,WNW,297,4.0,12.0,92,0.00,,,0.00,0.000000,,2013-07-27 08:12:00,
2013-07-27 01:22:00,52.0,50.0,-100.00,WNW,297,4.0,12.0,92,0.00,,,0.00,0.000000,,2013-07-27 08:22:00,
2013-07-27 01:32:00,52.0,50.0,-100.00,WNW,297,4.0,12.0,92,0.00,,,0.00,0.000000,,2013-07-27 08:32:00,
2013-07-27 01:33:00,51.0,49.0,-100.00,NNW,339,0.0,9.0,94,0.00,,,-99.99,0.000000,,2013-07-27 08:33:00,
2013-07-27 01:53:00,51.0,49.0,-100.00,NNW,339,0.0,9.0,94,0.00,,,-99.99,0.000000,,2013-07-27 08:53:00,
2013-07-27 02:02:00,51.0,49.0,-100.00,NNW,339,0.0,9.0,94,0.00,,,-99.99,0.000000,,2013-07-27 09:02:00,
2013-07-27 02:11:00,51.0,49.0,-100.00,NNW,339,0.0,9.0,94,0.00,,,-99.99,0.000000,,2013-07-27 09:11:00,
2013-07-27 02:22:00,51.0,49.0,-100.00,NNW,339,0.0,9.0,94,0.00,,,-99.99,0.000000,,2013-07-27 09:22:00,
2013-07-27 03:02:00,51.0,50.0,-100.00,West,273,0.0,8.0,95,0.00,,,0.00,0.000000,,2013-07-27 10:02:00,
2013-07-27 03:12:00,51.0,50.0,-100.00,West,273,0.0,8.0,95,0.00,,,0.00,0.000000,,2013-07-27 10:12:00,
2013-07-27 03:22:00,51.0,50.0,-100.00,West,273,0.0,8.0,95,0.00,,,0.00,0.000000,,2013-07-27 10:22:00,
2013-07-27 03:32:00,51.0,50.0,-100.00,West,273,0.0,8.0,95,0.00,,,0.00,0.000000,,2013-07-27 10:32:00,
2013-07-27 04:02:00,51.0,50.0,-100.00,West,269,0.0,14.0,95,0.00,,,0.00,0.000000,,2013-07-27 11:02:00,
2013-07-27 04:12:00,51.0,50.0,-100.00,West,269,0.0,14.0,95,0.00,,,0.00,0.000000,,2013-07-27 11:12:00,
2013-07-27 04:22:00,51.0,50.0,-100.00,West,269,0.0,14.0,95,0.00,,,0.00,0.000000,,2013-07-27 11:22:00,
2013-07-27 04:32:00,51.0,50.0,-100.00,West,269,0.0,14.0,95,0.00,,,0.00,0.000000,,2013-07-27 11:32:00,
2013-07-27 04:33:00,50.0,49.0,-100.00,WNW,282,0.0,11.0,95,0.00,,,0.00,1.000000,,2013-07-27 11:33:00,
2013-07-27 05:02:00,50.0,49.0,-100.00,WNW,282,0.0,11.0,95,0.00,,,0.00,1.000000,,2013-07-27 12:02:00,
2013-07-27 05:12:00,50.0,49.0,-100.00,WNW,282,0.0,11.0,95,0.00,,,0.00,1.000000,,2013-07-27 12:12:00,
2013-07-27 05:22:00,50.0,49.0,-100.00,WNW,282,0.0,11.0,95,0.00,,,0.00,1.000000,,2013-07-27 12:22:00,
2013-07-27 06:02:00,50.0,49.0,-100.00,NW,312,0.0,0.0,96,0.00,,,0.00,1.000000,,2013-07-27 13:02:00,
2013-07-27 06:12:00,50.0,49.0,-100.00,NW,312,0.0,0.0,96,0.00,,,0.00,1.000000,,2013-07-27 13:12:00,
2013-07-27 06:22:00,50.0,49.0,-100.00,NW,312,0.0,0.0,96,0.00,,,0.00,1.000000,,2013-07-27 13:22:00,
2013-07-27 06:32:00,50.0,49.0,-100.00,NW,312,0.0,0.0,96,0.00,,,0.00,1.000000,,2013-07-27 13:32:00,
2013-07-27 07:02:00,50.0,49.0,-100.00,WNW,282,0.0,0.0,96,0.00,,,-99.99,3.000000,,2013-07-27 14:02:00,
2013-07-27 07:12:00,50.0,49.0,-100.00,WNW,282,0.0,0.0,96,0.00,,,-99.99,3.000000,,2013-07-27 14:12:00,
2013-07-27 07:22:00,50.0,49.0,-100.00,WNW,282,0.0,0.0,96,0.00,,,-99.99,3.000000,,2013-07-27 14:22:00,
2013-07-27 07:32:00,50.0,49.0,-100.00,WNW,282,0.0,0.0,96,0.00,,,-99.99,3.000000,,2013-07-27 14:32:00,
2013-07-27 07:33:00,51.0,50.0,-100.00,West,273,0.0,0.0,96,0.00,,,0.00,40.000000,,2013-07-27 14:33:00,
2013-07-27 08:02:00,51.0,50.0,-100.00,West,273,0.0,0.0,96,0.00,,,0.00,40.000000,,2013-07-27 15:02:00,
2013-07-27 08:12:00,51.0,50.0,-100.00,West,273,0.0,0.0,96,0.00,,,0.00,40.000000,,2013-07-27 15:12:00,
2013-07-27 08:22:00,51.0,50.0,-100.00,West,273,0.0,0.0,96,0.00,,,0.00,40.000000,,2013-07-27 15:22:00,
2013-07-27 08:33:00,52.0,51.0,-100.00,West,268,0.0,0.0,96,0.00,,,-99.99,141.000000,,2013-07-27 15:33:00,
2013-07-27 09:02:00,52.0,51.0,-100.00,West,268,0.0,0.0,96,0.00,,,-99.99,141.000000,,2013-07-27 16:02:00,
2013-07-27 09:12:00,52.0,51.0,-100.00,West,268,0.0,0.0,96,0.00,,,-99.99,141.000000,,2013-07-27 16:12:00,
2013-07-27 09:22:00,52.0,51.0,-100.00,West,268,0.0,0.0,96,0.00,,,-99.99,141.000000,,2013-07-27 16:22:00,
2013-07-27 10:02:00,57.0,56.0,-100.00,SSW,205,0.0,0.0,95,0.00,,,0.00,292.000000,,2013-07-27 17:02:00,
2013-07-27 10:12:00,57.0,56.0,-100.00,SSW,205,0.0,0.0,95,0.00,,,0.00,292.000000,,2013-07-27 17:12:00,
2013-07-27 10:22:00,57.0,56.0,-100.00,SSW,205,0.0,0.0,95,0.00,,,0.00,292.000000,,2013-07-27 17:22:00,
2013-07-27 10:32:00,57.0,56.0,-100.00,SSW,205,0.0,0.0,95,0.00,,,0.00,292.000000,,2013-07-27 17:32:00,
2013-07-27 10:53:00,63.0,51.0,-100.00,SSE,155,0.0,0.0,64,0.00,,,0.00,631.000000,,2013-07-27 17:53:00,
2013-07-27 11:02:00,63.0,51.0,-100.00,SSE,155,0.0,0.0,64,0.00,,,0.00,631.000000,,2013-07-27 18:02:00,
2013-07-27 11:12:00,63.0,51.0,-100.00,SSE,155,0.0,0.0,64,0.00,,,0.00,631.000000,,2013-07-27 18:12:00,
2013-07-27 11:22:00,63.0,51.0,-100.00,SSE,155,0.0,0.0,64,0.00,,,0.00,631.000000,,2013-07-27 18:22:00,
2013-07-27 11:32:00,63.0,51.0,-100.00,SSE,155,0.0,0.0,64,0.00,,,0.00,631.000000,,2013-07-27 18:32:00,
2013-07-27 12:02:00,63.0,51.0,-100.00,SE,137,1.0,10.0,65,0.00,,,0.00,781.000000,,2013-07-27 19:02:00,
2013-07-27 12:12:00,63.0,51.0,-100.00,SE,137,1.0,10.0,65,0.00,,,0.00,781.000000,,2013-07-27 19:12:00,
2013-07-27 12:22:00,63.0,51.0,-100.00,SE,137,1.0,10.0,65,0.00,,,0.00,781.000000,,2013-07-27 19:22:00,
2013-07-27 12:32:00,63.0,51.0,-100.00,SE,137,1.0,10.0,65,0.00,,,0.00,781.000000,,2013-07-27 19:32:00,
2013-07-27 13:02:00,67.0,53.0,-100.00,SSE,160,0.0,11.0,60,0.00,,,0.00,881.000000,,2013-07-27 20:02:00,
2013-07-27 13:12:00,67.0,53.0,-100.00,SSE,160,0.0,11.0,60,0.00,,,0.00,881.000000,,2013-07-27 20:12:00,
2013-07-27 13:22:00,67.0,53.0,-100.00,SSE,160,0.0,11.0,60,0.00,,,0.00,881.000000,,2013-07-27 20:22:00,
2013-07-27 13:32:00,67.0,53.0,-100.00,SSE,160,0.0,11.0,60,0.00,,,0.00,881.000000,,2013-07-27 20:32:00,
2013-07-27 13:33:00,72.0,53.0,-100.00,SE,133,0.0,10.0,52,0.00,,,0.00,932.000000,,2013-07-27 20:33:00,
2013-07-27 14:02:00,72.0,53.0,-100.00,SE,133,0.0,10.0,52,0.00,,,0.00,932.000000,,2013-07-27 21:02:00,
2013-07-27 14:12:00,72.0,53.0,-100.00,SE,133,0.0,10.0,52,0.00,,,0.00,932.000000,,2013-07-27 21:12:00,
2013-07-27 14:22:00,72.0,53.0,-100.00,SE,133,0.0,10.0,52,0.00,,,0.00,932.000000,,2013-07-27 21:22:00,
2013-07-27 14:53:00,80.0,54.0,-100.00,South,183,0.0,10.0,41,0.00,,,0.00,925.000000,,2013-07-27 21:53:00,
2013-07-27 15:02:00,80.0,54.0,-100.00,South,183,0.0,10.0,41,0.00,,,0.00,925.000000,,2013-07-27 22:02:00,
2013-07-27 15:12:00,80.0,54.0,-100.00,South,183,0.0,10.0,41,0.00,,,0.00,925.000000,,2013-07-27 22:12:00,
2013-07-27 15:22:00,80.0,54.0,-100.00,South,183,0.0,10.0,41,0.00,,,0.00,925.000000,,2013-07-27 22:22:00,
2013-07-27 15:32:00,80.0,54.0,-100.00,South,183,0.0,10.0,41,0.00,,,0.00,925.000000,,2013-07-27 22:32:00,
2013-07-27 16:02:00,82.0,52.0,-100.00,WSW,254,1.0,12.0,36,0.00,,,0.00,875.000000,,2013-07-27 23:02:00,
2013-07-27 16:12:00,82.0,52.0,-100.00,WSW,254,1.0,12.0,36,0.00,,,0.00,875.000000,,2013-07-27 23:12:00,
2013-07-27 16:22:00,82.0,52.0,-100.00,WSW,254,1.0,12.0,36,0.00,,,0.00,875.000000,,2013-07-27 23:22:00,
2013-07-27 16:32:00,82.0,52.0,-100.00,WSW,254,1.0,12.0,36,0.00,,,0.00,875.000000,,2013-07-27 23:32:00,
2013-07-27 16:53:00,79.0,52.0,-100.00,West,278,2.0,12.0,39,0.00,,,0.00,767.000000,,2013-07-27 23:53:00,
2013-07-27 17:02:00,79.0,52.0,-100.00,West,278,2.0,12.0,39,0.00,,,0.00,767.000000,,2013-07-28 00:02:00,
2013-07-27 17:12:00,79.0,52.0,-100.00,West,278,2.0,12.0,39,0.00,,,0.00,767.000000,,2013-07-28 00:12:00,
2013-07-27 17:22:00,79.0,52.0,-100.00,West,278,2.0,12.0,39,0.00,,,0.00,767.000000,,2013-07-28 00:22:00,
2013-07-27 17:32:00,79.0,52.0,-100.00,West,278,2.0,12.0,39,0.00,,,0.00,767.000000,,2013-07-28 00:32:00,
2013-07-27 17:53:00,77.0,51.0,-100.00,West,277,1.0,12.0,40,0.00,,,0.00,614.000000,,2013-07-28 00:53:00,
2013-07-27 18:02:00,77.0,51.0,-100.00,West,277,1.0,12.0,40,0.00,,,0.00,614.000000,,2013-07-28 01:02:00,
2013-07-27 18:12:00,77.0,51.0,-100.00,West,277,1.0,12.0,40,0.00,,,0.00,614.000000,,2013-07-28 01:12:00,
2013-07-27 18:22:00,77.0,51.0,-100.00,West,277,1.0,12.0,40,0.00,,,0.00,614.000000,,2013-07-28 01:22:00,
2013-07-27 18:32:00,77.0,51.0,-100.00,West,277,1.0,12.0,40,0.00,,,0.00,614.000000,,2013-07-28 01:32:00,
2013-07-27 19:02:00,71.0,51.0,-100.00,WNW,286,1.0,15.0,49,0.00,,,0.00,432.000000,,2013-07-28 02:02:00,
2013-07-27 19:12:00,71.0,51.0,-100.00,WNW,286,1.0,15.0,49,0.00,,,0.00,432.000000,,2013-07-28 02:12:00,
2013-07-27 19:22:00,71.0,51.0,-100.00,WNW,286,1.0,15.0,49,0.00,,,0.00,432.000000,,2013-07-28 02:22:00,
2013-07-27 19:32:00,71.0,51.0,-100.00,WNW,286,1.0,15.0,49,0.00,,,0.00,432.000000,,2013-07-28 02:32:00,
2013-07-27 19:53:00,63.0,50.0,-100.00,WNW,297,0.0,15.0,62,0.00,,,0.00,235.000000,,2013-07-28 02:53:00,
2013-07-27 20:02:00,63.0,50.0,-100.00,WNW,297,0.0,15.0,62,0.00,,,0.00,235.000000,,2013-07-28 03:02:00,
2013-07-27 20:12:00,63.0,50.0,-100.00,WNW,297,0.0,15.0,62,0.00,,,0.00,235.000000,,2013-07-28 03:12:00,
2013-07-27 20:22:00,63.0,50.0,-100.00,WNW,297,0.0,15.0,62,0.00,,,0.00,235.000000,,2013-07-28 03:22:00,
2013-07-27 20:32:00,63.0,50.0,-100.00,WNW,297,0.0,15.0,62,0.00,,,0.00,235.000000,,2013-07-28 03:32:00,
2013-07-27 21:02:00,58.0,50.0,-100.00,NW,319,0.0,4.0,75,0.00,,,0.00,48.000000,,2013-07-28 04:02:00,
2013-07-27 21:12:00,58.0,50.0,-100.00,NW,319,0.0,4.0,75,0.00,,,0.00,48.000000,,2013-07-28 04:12:00,
2013-07-27 21:22:00,58.0,50.0,-100.00,NW,319,0.0,4.0,75,0.00,,,0.00,48.000000,,2013-07-28 04:22:00,
2013-07-27 21:32:00,58.0,50.0,-100.00,NW,319,0.0,4.0,75,0.00,,,0.00,48.000000,,2013-07-28 04:32:00,
2013-07-27 21:53:00,57.0,50.0,-100.00,WNW,298,6.0,15.0,77,0.00,,,0.00,1.000000,,2013-07-28 04:53:00,
2013-07-27 22:02:00,57.0,50.0,-100.00,WNW,298,6.0,15.0,77,0.00,,,0.00,1.000000,,2013-07-28 05:02:00,
2013-07-27 22:12:00,57.0,50.0,-100.00,WNW,298,6.0,15.0,77,0.00,,,0.00,1.000000,,2013-07-28 05:12:00,
2013-07-27 22:22:00,57.0,50.0,-100.00,WNW,298,6.0,15.0,77,0.00,,,0.00,1.000000,,2013-07-28 05:22:00,
2013-07-27 22:32:00,57.0,50.0,-100.00,WNW,298,6.0,15.0,77,0.00,,,0.00,1.000000,,2013-07-28 05:32:00,
2013-07-27 23:02:00,57.0,49.0,-100.00,WNW,295,9.0,16.0,74,0.00,,,0.00,1.000000,,2013-07-28 06:02:00,
2013-07-27 23:12:00,57.0,49.0,-100.00,WNW,295,9.0,16.0,74,0.00,,,0.00,1.000000,,2013-07-28 06:12:00,
2013-07-27 23:22:00,57.0,49.0,-100.00,WNW,295,9.0,16.0,74,0.00,,,0.00,1.000000,,2013-07-28 06:22:00,
2013-07-27 23:32:00,57.0,49.0,-100.00,WNW,295,9.0,16.0,74,0.00,,,0.00,1.000000,,2013-07-28 06:32:00,